sat.trackr.live / text

‹ back to catalog

STARLINK-37690

NORAD 69825 · 2026-154G

PAYLOAD ACTIVE UNKNOWN

§ Identity

Operator
Country
US
Launch date
2026-07-05
Launch site
AFETR
Launch vehicle
Mass (kg)
RCS (m²)

Purposes: comms

External: N2YO · Heavens-Above · Gunter

§ Orbital elements

Epoch: 2026-09-19T04:38:20.022720Z

Period
93.85 min
Inclination
53.1597°
Eccentricity
0.0002345
Mean motion
15.34417095 rev/d
Perigee alt
461.0 km
Apogee alt
464.3 km
Semi-major
6,840.8 km
B*
6.0094e-4
RAAN
338.1134°
Arg perigee
82.1001°
Mean anomaly
278.0268°
Rev number
1,303

§ Raw data

STARLINK-376901 69825U 26154G   26262.19328730  .00019993  00000+0  60094-3 0  99912 69825  53.1597 338.1134 0002345  82.1001 278.0268 15.34417095 13030

JSON: /api/v1/satellites/69825 · /tle

For live sub-satellite position, see the globe view (requires WebGL).

§ Visibility from observer

Set your observer location to see the next 7 days of passes ≥ 10°. The values pass through the URL so the page stays shareable.

No JS? Fill the form by hand. The geolocation button needs JavaScript.